Home > Weather > Freising > Past weeks

Flag for Germany Past Weather in Freising, Bavaria, Germany — Yesterday and Last 2 Weeks

Now
79 °F

Scattered showers. Scattered clouds.


Feels Like: 81 °F
Forecast: 60 / 76 °F
Wind: 6 mph from West

Location: Munich / Franz Josef Strauss Airport

Current Time: Jul 27, 2016 at 5:28:17 PM

Latest Report: Jul 27, 2016 at 4:50 PM


Visibility: N/A

Pressure: 30.01 "Hg

Humidity: 61%

Dew Point: 64 °F

Location of FreisingLocation

Past Weather in Freising — Graph

°F

Freising Temperature Yesterday

Maximum temperature yesterday: 75 °F (at 10:20 AM)
Minimum temperature yesterday: 61 °F (at 4:20 AM)
Average temperature yesterday: 68 °F

High & Low Weather Summary for the Past Weeks

 TemperatureHumidityPressure
High84 °F (Jul 20, 2:50 PM)100% (Jul 12, 4:50 PM)30.33 "Hg (Jul 12, 4:50 PM)
Low48 °F (Jul 15, 2:50 AM)32% (Jul 19, 5:50 PM)29.92 "Hg (Jul 13, 2:20 PM)
Average66 °F79%30.11 "Hg
* Reported Jul 12 4:20 PM — Jul 27 4:20 PM, Freising, Weather by CustomWeather, © 2016

Note: Actual official high and low records may vary slightly from our data, if they occured in-between our weather recording intervals... More about our weather records

Advertising

Freising Weather History for the Previous 24 Hours

Scroll right to see more
 ConditionsComfort  
Time TempWeatherWind HumidityBarometerVisibility
4:20 PM
Wed, Jul 27
79 °FScattered showers. Scattered clouds.8 mph54%30.01 "HgN/A
3:50 PM79 °FScattered showers. Scattered clouds.8 mph54%30.01 "HgN/A
3:20 PM79 °FSprinkles. Scattered clouds.6 mph58%30.01 "HgN/A
2:50 PM79 °FScattered clouds.6 mph54%30.04 "HgN/A
2:20 PM77 °FScattered clouds.5 mph61%30.04 "HgN/A
1:50 PM77 °FScattered clouds.3 mph61%30.04 "HgN/A
1:20 PM75 °FScattered clouds.7 mph65%30.04 "HgN/A
12:50 PM73 °FScattered clouds.6 mph69%30.07 "HgN/A
12:20 PM73 °FPartly sunny.7 mph69%30.09 "HgN/A
11:50 AM72 °FPartly sunny.6 mph73%30.09 "HgN/A
11:20 AM72 °FPartly sunny.7 mph69%30.09 "HgN/A
10:50 AM70 °FPartly sunny.5 mph73%30.09 "HgN/A
10:20 AM70 °FPartly sunny.5 mph78%30.09 "HgN/A
9:50 AM70 °FPassing clouds.6 mph73%30.09 "HgN/A
9:20 AM70 °FPassing clouds.5 mph78%30.09 "HgN/A
8:50 AM68 °FPassing clouds.7 mph83%30.09 "HgN/A
8:20 AM64 °FPassing clouds.5 mph94%30.09 "HgN/A
7:50 AM61 °FPassing clouds.5 mph100%30.09 "HgN/A
7:20 AM61 °FFog.3 mph100%30.09 "Hg5 mi
6:50 AM59 °FFog.6 mph100%30.09 "Hg3 mi
6:20 AM57 °FRain. Overcast.2 mph100%30.09 "Hg3 mi
5:50 AM57 °FFog.3 mph100%30.09 "Hg3 mi
5:20 AM57 °FFog.2 mph100%30.09 "Hg3 mi
4:50 AM57 °FFog.3 mph100%30.09 "Hg3 mi
4:20 AM57 °FFog.3 mph100%30.09 "Hg2 mi
3:50 AM57 °FFog.3 mph100%30.09 "Hg2 mi
3:20 AM57 °FFog.2 mph100%30.09 "Hg2 mi
2:50 AM59 °FFog.2 mph100%30.09 "Hg2 mi
2:20 AM57 °FFog.5 mph100%30.09 "Hg2 mi
1:50 AM57 °FLight fog.2 mph100%30.12 "Hg3 mi
1:20 AM59 °FCool.2 mph100%30.12 "Hg4 mi
12:50 AM61 °FRain. Overcast.1 mph100%30.12 "HgN/A
12:20 AM61 °FRain. Light fog.2 mph100%30.12 "HgN/A
11:50 PM
Tue, Jul 26
63 °FLight fog.No wind100%30.12 "HgN/A
11:20 PM63 °FLight fog.1 mph100%30.12 "HgN/A
10:50 PM64 °FClear.5 mph100%30.12 "Hg10 mi
10:20 PM66 °FClear.6 mph94%30.12 "Hg10 mi
9:50 PM66 °FBroken clouds.5 mph94%30.12 "HgN/A
9:20 PM68 °FSunny.2 mph94%30.12 "Hg10 mi
8:50 PM68 °FPassing clouds.6 mph94%30.12 "HgN/A
8:20 PM68 °FSunny.6 mph94%30.09 "Hg10 mi
7:50 PM70 °FSunny.2 mph83%30.12 "Hg10 mi
7:20 PM68 °FSunny.2 mph94%30.12 "Hg10 mi
6:50 PM68 °FPassing clouds.3 mph94%30.12 "HgN/A
6:20 PM68 °FPassing clouds.5 mph88%30.09 "HgN/A
5:50 PM68 °FLight rain. Partly sunny.1 mph88%30.09 "HgN/A
5:20 PM68 °FLight rain. Partly sunny.3 mph83%30.12 "HgN/A
Weather by CustomWeather, © 2016

See weather overviewHow to use our weather pages